Wind_Speed
10 13 9 9 10 11 12 13 13 12 12 11 10 10 9 9 10 10 10 10 11 11 12 13 12 10 7 8 8 7 6 7 7 8 8 8 7 9 10 10 10 11 12
14 11 12 9 10 11 11 11 11 10 10 9 10 10 10 11 10 10 10 11 12 13 13 13 13 10 7 6 6 6 6 5 5 6 7 7 7 7 8 8 9 9 9
8 10 12 11 12 11 10 10 10 10 9 9 9 10 10 9 9 9 10 10 11 12 12 12 12 11 8 4 4 4 4 5 4 2 3 5 6 6 6 7 8 7 6
8 6 9 11 12 13 12 11 11 10 9 8 8 8 7 8 8 8 8 9 9 11 11 10 10 10 9 6 2 0 1 2 3 2 1 2 3 4 5 6 7 5 5
6 8 10 8 10 10 9 8 7 7 6 6 5 5 6 6 6 7 8 8 8 9 10 10 9 8 7 7 5 3 4 3 1 1 1 1 1 2 4 4 5 4 4
6 7 7 7 6 7 7 7 6 5 4 4 4 4 5 5 6 6 7 9 9 9 9 9 9 8 7 6 6 5 6 7 7 5 3 3 4 3 4 5 6 6 5
5 6 6 6 5 6 5 5 6 5 6 7 6 4 2 1 2 3 4 6 7 8 9 8 9 8 7 7 6 6 6 8 9 10 10 8 7 7 7 6 6 6 6
3 4 4 3 3 3 4 4 4 5 5 6 7 7 6 5 5 5 5 5 6 7 9 9 9 9 9 8 7 7 9 9 9 10 11 11 10 10 10 9 8 8 9
2 2 2 1 1 2 3 3 4 4 5 5 6 6 6 6 7 8 8 9 9 10 11 10 10 10 9 9 9 9 9 11 12 11 10 11 11 11 10 13 10 9 10
2 2 1 2 2 3 3 3 4 5 5 6 6 6 7 8 9 10 11 11 11 12 12 12 11 11 10 9 9 10 12 12 12 13 14 11 12 12 10 11 13 10 11
2 1 1 0 1 3 3 3 4 5 6 8 9 10 10 10 11 12 12 12 12 13 14 14 14 13 13 11 10 11 12 13 14 14 15 14 14 13 14 11 13 13 12
2 2 3 3 2 3 4 5 7 8 9 9 10 11 13 13 13 13 13 13 15 15 16 16 16 14 14 14 14 14 14 13 14 15 15 17 17 16 16 14 13 15 15
3 3 3 3 4 4 4 5 7 8 9 10 11 11 12 13 14 14 14 16 17 18 19 19 18 17 16 16 16 16 17 17 16 16 17 17 21 19 17 19 16 15 17
4 5 5 4 4 4 4 4 6 7 9 9 10 10 10 11 11 13 14 15 16 18 18 19 20 20 19 19 20 21 20 19 18 19 19 20 20 23 20 18 21 20 17
7 8 7 7 7 8 8 9 9 10 11 13 14 14 14 14 15 15 16 16 17 19 21 21 21 22 22 24 24 25 24 24 23 23 22 22 22 23 25 23 23 23 21
8 8 8 7 8 8 8 9 10 11 12 14 15 17 18 18 18 18 19 19 20 20 21 22 24 25 25 26 26 27 28 28 29 29 27 26 25 25 27 25 26 25 24
8 8 6 7 7 6 7 9 10 12 13 14 16 18 19 20 21 22 22 22 23 24 25 25 26 26 27 28 29 30 30 31 31 31 31 29 28 27 26 28 28 27 27
7 6 6 7 6 7 9 10 11 12 13 15 16 18 20 21 23 24 25 25 26 27 28 28 29 30 31 32 33 32 33 33 32 33 32 31 30 30 32 30 31 31 29
5 4 3 3 4 6 8 10 12 13 15 16 18 19 21 23 25 27 28 29 30 30 30 31 32 33 34 35 37 36 35 36 36 34 34 33 32 31 32 33 32 31 32
3 1 1 3 5 7 9 10 11 14 17 20 23 25 26 27 28 30 31 32 33 34 34 34 35 34 35 38 41 41 39 38 38 38 36 34 34 33 32 33 34 34 33
3 1 3 6 8 10 12 14 15 19 23 25 28 29 31 32 32 33 33 33 33 34 34 35 37 38 37 38 41 45 45 41 38 37 34 33 33 33 34 33 34 36 36
3 3 5 7 10 13 17 20 24 27 28 29 30 31 31 31 31 32 33 34 33 35 33 32 33 36 35 33 34 37 29 41 36 26 22 25 29 30 31 32 33 34 36
5 4 5 8 12 16 19 23 25 28 31 33 33 32 32 32 31 31 31 31 30 31 32 32 32 31 34 32 27 21 14 11 34 35 31 24 23 24 23 24 27 28 29
6 6 7 9 13 18 21 25 28 30 31 32 33 33 32 30 30 29 30 31 32 32 33 32 31 31 31 33 31 25 20 25 19 30 28 38 36 35 32 30 27 28 25
7 7 8 12 15 18 23 26 28 30 32 34 33 34 34 32 31 31 31 32 33 34 35 35 34 32 32 33 32 32 32 33 34 35 45 38 48 46 44 42 39 34 28
8 8 10 14 18 21 24 27 29 30 32 33 33 35 36 36 36 34 34 34 35 35 36 36 36 36 35 34 34 34 34 34 30 30 35 39 42 52 50 49 46 42 38
Wind_Direction
58 47 45 58 68 75 79 80 78 77 76 73 60 53 50 52 56 53 51 48 40 34 32 33 37 45 57 69 64 74 90 92 94 95 101 105 113 123 127 123 123 128 120
66 70 58 59 67 72 74 74 71 68 66 62 60 59 57 54 49 50 47 40 33 29 30 32 35 41 53 69 75 71 68 76 85 94 96 103 117 133 139 140 140 140 122
75 89 75 87 80 73 74 69 70 68 65 58 57 54 50 52 45 42 37 32 30 31 30 30 31 33 37 56 81 82 85 65 56 88 102 92 116 135 148 148 142 146 131
59 48 58 51 72 88 87 79 74 70 73 69 59 51 47 45 44 38 28 24 22 22 24 27 29 28 28 24 21 35 61 58 41 31 127 148 112 132 159 160 160 155 138
78 68 74 59 64 76 78 73 68 65 62 57 53 47 38 33 26 20 13 15 17 14 12 14 15 18 21 20 5 309 279 295 353 42 352 199 192 251 236 209 190 207 228
94 80 74 71 68 69 73 82 85 80 75 61 50 43 30 22 21 17 5 0 360 0 1 359 360 357 359 359 353 343 297 276 275 276 266 266 259 262 261 252 249 244 225
106 92 80 72 67 68 68 64 60 49 42 37 36 34 43 42 12 9 0 359 350 345 345 341 340 339 336 332 329 316 312 297 286 273 271 268 262 265 255 246 241 227 214
99 94 82 69 57 58 47 37 31 19 10 7 9 13 17 1 344 331 328 317 320 324 325 322 320 322 321 316 311 308 301 293 289 280 275 266 262 262 255 242 236 232 219
128 113 129 120 7 355 354 355 355 350 344 345 348 350 349 340 327 321 321 317 316 313 309 305 304 308 309 307 304 298 294 293 288 284 274 268 266 257 261 240 234 235 220
88 107 161 198 243 284 307 323 328 328 331 333 332 332 329 322 317 315 315 314 313 312 313 314 311 302 301 301 297 293 291 288 287 281 280 267 257 263 266 245 233 231 230
66 83 69 334 279 287 290 297 299 303 306 307 306 309 310 310 311 310 312 311 311 312 313 316 316 309 296 289 284 283 281 281 283 281 274 273 263 256 258 264 239 235 237
2 23 22 14 346 316 311 311 310 311 311 312 310 311 312 312 311 308 305 304 304 303 302 304 307 307 301 289 285 286 283 279 276 275 275 266 266 265 259 252 251 245 241
62 57 58 43 32 6 337 319 307 307 309 310 311 309 309 304 299 293 287 281 283 287 292 294 293 293 293 292 289 289 285 282 279 271 267 272 262 261 265 258 250 254 249
92 75 66 52 35 28 24 10 10 2 3 354 353 345 335 331 326 317 313 309 304 301 297 292 290 291 288 284 285 284 285 285 282 278 269 263 267 256 258 260 254 252 254
114 101 93 82 70 53 35 30 21 13 7 8 3 1 355 350 345 340 333 326 319 314 309 306 302 295 287 282 281 280 278 279 282 280 275 267 260 252 253 258 257 258 258
108 94 78 64 53 46 35 29 23 16 11 0 354 351 348 345 339 335 331 327 323 318 314 310 307 303 298 292 284 280 279 276 275 277 279 271 266 256 250 253 256 253 251
106 92 89 75 62 45 33 23 14 8 0 352 348 345 341 337 335 332 329 324 321 317 314 309 305 302 298 294 290 286 282 280 276 273 273 272 266 262 260 252 250 256 256
120 113 82 66 46 28 15 8 3 356 351 346 341 339 335 332 329 327 323 320 317 315 312 309 306 302 299 297 292 287 285 281 278 276 272 269 267 262 257 260 253 249 253
125 103 79 43 16 9 4 357 352 348 343 341 339 335 332 329 326 323 320 317 314 311 308 306 304 303 301 298 293 290 285 283 281 278 274 271 267 265 261 257 258 258 250
151 157 341 342 349 349 346 341 336 339 339 340 339 335 331 327 322 318 315 313 311 310 308 307 305 302 304 301 296 292 286 284 283 281 277 273 269 266 263 259 257 257 256
199 257 321 337 336 331 325 323 326 336 340 337 334 331 327 325 323 320 316 314 312 310 308 308 307 306 303 303 305 292 287 285 283 278 278 275 271 267 263 261 259 257 256
228 280 309 322 331 337 342 345 343 338 334 330 328 327 325 322 321 321 319 316 314 312 310 310 309 308 307 308 315 314 311 299 287 278 271 262 258 256 256 256 256 256 255
232 269 301 327 335 337 338 336 332 328 326 326 324 324 326 326 324 321 319 317 314 312 311 311 311 310 308 306 308 308 314 294 298 287 266 259 252 248 245 245 244 248 253
238 269 307 318 329 333 332 331 329 328 326 327 328 328 326 325 325 322 318 316 314 313 311 310 308 305 304 304 302 296 279 278 297 301 287 271 264 266 262 260 259 250 247
239 272 302 324 326 326 327 330 331 331 329 328 327 325 325 324 323 323 319 316 313 312 310 309 306 302 300 298 296 294 289 288 282 275 287 292 283 276 270 270 267 264 258
252 284 307 316 320 322 327 329 328 326 326 324 324 323 323 325 325 323 319 315 313 311 308 306 303 301 298 294 292 289 285 283 278 275 277 283 287 286 283 275 272 268 265
Height
1565 1564 1565 1564 1563 1562 1560 1560 1560 1559 1559 1560 1560 1559 1559 1558 1558 1558 1557 1557 1556 1555 1553 1552 1551 1550 1549 1548 1548 1548 1547 1546 1546 1546 1545 1545 1546 1546 1546 1546 1546 1546 1546
1566 1565 1566 1566 1565 1564 1563 1563 1563 1562 1562 1562 1561 1561 1560 1560 1560 1559 1559 1558 1558 1557 1555 1554 1553 1552 1550 1550 1549 1549 1549 1549 1548 1547 1547 1547 1547 1547 1548 1548 1548 1548 1548
1569 1566 1566 1565 1565 1565 1565 1565 1565 1564 1564 1563 1563 1563 1562 1561 1561 1560 1560 1560 1559 1558 1557 1556 1555 1554 1552 1552 1551 1551 1550 1550 1550 1549 1549 1548 1548 1549 1549 1549 1550 1550 1549
1569 1568 1567 1567 1566 1565 1566 1566 1566 1566 1565 1564 1564 1564 1563 1562 1562 1562 1561 1561 1560 1559 1558 1557 1556 1555 1554 1554 1553 1552 1552 1551 1550 1551 1550 1550 1550 1550 1550 1550 1551 1551 1550
1571 1569 1568 1568 1568 1567 1567 1566 1567 1566 1566 1565 1565 1565 1564 1564 1563 1563 1563 1562 1561 1560 1559 1558 1557 1556 1555 1554 1554 1553 1553 1552 1552 1551 1551 1551 1551 1551 1551 1551 1551 1551 1550
1571 1571 1570 1569 1570 1568 1568 1567 1567 1566 1566 1566 1565 1565 1564 1565 1564 1564 1563 1562 1561 1560 1559 1558 1558 1557 1556 1555 1554 1554 1553 1552 1552 1552 1551 1551 1551 1551 1550 1550 1550 1550 1550
1572 1571 1570 1570 1571 1570 1569 1568 1568 1567 1566 1566 1565 1565 1564 1563 1563 1563 1562 1562 1561 1560 1559 1558 1557 1557 1556 1556 1555 1554 1552 1552 1551 1551 1551 1551 1550 1550 1550 1550 1549 1550 1550
1573 1572 1571 1571 1571 1570 1570 1569 1569 1568 1568 1567 1566 1565 1565 1564 1563 1562 1561 1560 1560 1559 1558 1557 1557 1556 1555 1554 1554 1553 1552 1551 1550 1550 1550 1550 1549 1549 1548 1549 1549 1549 1549
1574 1573 1572 1572 1571 1570 1570 1570 1569 1569 1568 1567 1566 1565 1565 1564 1563 1562 1561 1560 1559 1558 1557 1556 1555 1554 1553 1553 1553 1552 1551 1550 1549 1548 1548 1549 1549 1548 1547 1547 1548 1548 1548
1573 1573 1573 1573 1572 1571 1571 1570 1569 1569 1568 1567 1566 1566 1565 1564 1563 1562 1561 1560 1558 1557 1556 1555 1554 1553 1552 1551 1551 1550 1549 1549 1547 1547 1547 1547 1547 1547 1546 1545 1546 1546 1546
1575 1574 1573 1573 1571 1571 1571 1570 1570 1569 1569 1568 1567 1566 1565 1564 1563 1561 1560 1559 1557 1556 1555 1554 1553 1552 1551 1550 1548 1547 1547 1546 1546 1545 1545 1545 1545 1545 1545 1544 1544 1545 1545
1574 1573 1573 1572 1573 1573 1571 1570 1569 1569 1567 1566 1566 1565 1564 1563 1562 1561 1560 1559 1557 1555 1554 1553 1552 1550 1549 1548 1547 1546 1544 1543 1542 1542 1543 1542 1543 1543 1542 1543 1542 1543 1543
1574 1574 1574 1573 1573 1571 1570 1569 1568 1566 1565 1564 1563 1563 1561 1560 1558 1557 1556 1554 1553 1552 1552 1551 1550 1548 1547 1546 1545 1543 1542 1541 1539 1539 1539 1540 1540 1540 1540 1540 1540 1540 1541
1575 1574 1574 1573 1572 1570 1569 1567 1566 1566 1565 1564 1563 1562 1560 1559 1557 1555 1554 1552 1550 1549 1548 1546 1545 1545 1544 1543 1541 1540 1539 1537 1536 1536 1536 1535 1535 1536 1536 1537 1536 1537 1538
1574 1573 1572 1571 1570 1570 1569 1569 1568 1566 1565 1564 1563 1562 1560 1558 1557 1555 1553 1551 1549 1547 1545 1543 1542 1541 1539 1539 1538 1536 1535 1534 1533 1532 1531 1531 1531 1531 1532 1533 1533 1533 1533
1573 1572 1572 1572 1571 1570 1570 1569 1568 1567 1566 1564 1563 1561 1559 1557 1555 1553 1551 1549 1547 1545 1543 1540 1538 1536 1534 1532 1532 1531 1530 1529 1528 1527 1526 1526 1526 1527 1527 1528 1528 1528 1529
1573 1573 1572 1572 1571 1571 1570 1569 1568 1567 1566 1565 1563 1560 1558 1556 1554 1551 1549 1547 1545 1543 1540 1538 1536 1533 1531 1528 1526 1525 1524 1523 1522 1521 1521 1520 1521 1521 1521 1521 1522 1524 1524
1573 1573 1573 1573 1572 1572 1571 1570 1568 1567 1565 1564 1562 1559 1557 1554 1551 1549 1546 1544 1542 1539 1536 1533 1529 1527 1525 1522 1519 1519 1517 1515 1515 1515 1514 1514 1514 1515 1515 1515 1516 1516 1517
1573 1573 1573 1573 1572 1571 1570 1569 1567 1566 1564 1563 1561 1558 1555 1552 1549 1546 1543 1540 1537 1534 1531 1528 1525 1521 1518 1515 1511 1510 1509 1507 1508 1507 1507 1508 1507 1507 1508 1509 1509 1508 1508
1573 1573 1573 1572 1571 1570 1570 1568 1567 1565 1563 1561 1558 1556 1553 1550 1547 1544 1540 1537 1532 1529 1526 1523 1519 1517 1513 1507 1502 1500 1499 1499 1499 1499 1498 1499 1500 1500 1500 1501 1501 1501 1501
1572 1572 1572 1571 1570 1568 1567 1565 1563 1561 1560 1558 1556 1553 1550 1546 1542 1539 1535 1532 1528 1525 1521 1517 1513 1509 1507 1503 1497 1490 1488 1489 1490 1490 1491 1491 1491 1491 1491 1492 1493 1493 1494
1570 1570 1569 1568 1567 1566 1564 1562 1560 1558 1556 1554 1551 1549 1546 1542 1539 1535 1530 1526 1523 1519 1516 1513 1509 1503 1501 1501 1496 1492 1480 1476 1478 1481 1483 1481 1481 1481 1482 1483 1483 1484 1485
1568 1568 1566 1566 1565 1564 1562 1560 1558 1555 1553 1550 1546 1543 1540 1537 1534 1530 1526 1521 1518 1515 1512 1507 1504 1501 1496 1496 1497 1496 1490 1480 1471 1471 1475 1475 1474 1474 1474 1473 1474 1475 1476
1566 1565 1565 1563 1563 1561 1559 1556 1554 1550 1546 1543 1539 1536 1534 1532 1529 1526 1521 1516 1512 1509 1506 1502 1500 1497 1493 1489 1490 1491 1490 1485 1480 1462 1460 1463 1468 1467 1465 1465 1467 1466 1468
1563 1563 1562 1562 1560 1557 1556 1554 1549 1546 1543 1539 1535 1531 1528 1526 1523 1520 1516 1512 1508 1503 1499 1496 1493 1490 1488 1485 1483 1481 1480 1476 1476 1471 1449 1451 1454 1457 1457 1457 1457 1458 1461
1560 1561 1561 1560 1557 1553 1551 1549 1544 1540 1536 1533 1530 1525 1521 1518 1515 1515 1511 1506 1502 1497 1493 1490 1486 1481 1479 1477 1475 1473 1472 1470 1466 1466 1456 1449 1447 1444 1446 1447 1448 1450 1451